FENGYUN 1C DEB, 41007

Orbit data source: Space-Track

FENGYUN 1C DEB, 41007 is space debris in SSO originally from a launch on Mon, 10 May 1999 UTC launched from the Taiyaun Space Center, China (TSC). Fengyun 1C debris stems from the Chinese weather satellite Fengyun-1C, which was intentionally destroyed by a Chinese anti-satellite missile in 2007. This event dramatically increased the amount of space debris, with thousands of trackable fragments posing hazards to satellites and human spaceflight. The Fengyun 1C debris cloud has become a focal point in discussions about space sustainability and the need for international regulations to prevent the creation of new debris.

Loading next visibility...
Identifier
41007, 1999-025EXM
Orbit
SSO
Country
Flag of CNCN / PRC
Related business
Manufacturer
Unknown
Mission
Spacecraft
Bus & Motor
Unknown
Mass
Unknown
Launch date (UTC)
1999-05-10 (27 years ago)
Launch vehicle
Unknown
Launch site
Taiyaun Space Center, China (TSC)
Object type
Payload
Rocket body
Debris
Shape & HBR
Unknown shape, 1.1 m
Radar Cross Section
Small (<0.1 m²)

Expand to show TLE details & history
Last TLE update: 2 days ago

TLE from 2 days ago
0 FENGYUN 1C DEB
1 41007U 99025EXM 26236.35343742  .00001363  00000-0  10765-2 0  9991
2 41007  99.9411 284.2856 0174248  98.1108 263.9853 13.86625963609263
Epoch: 2026-08-24T08:28Z
TLE epoch observation values (Epoch: 2026-08-24T08:28:56.993Z)
Latitude
-0.00001°
Longitude
-175.58822°
Altitude
958.864 km
Speed
7.364 km/s
True Right ascension
18h 57m 08s
True Declination
0° 00' 00"
Sunlit
Object was in full shadow at epoch
Visualization orbit readout
Latitude
Unknown
Longitude
Unknown
Altitude
Unknown
Speed
Unknown
Apparent Right ascension
Unknown
Apparent Declination
Unknown
Sunlit
N/A
Visualization observer readout
Local Sidereal Time
14:16:09
Azimuth
Unknown
Elevation
Unknown
Doppler factor
Unknown
Orbital elements
Apogee altitude
1,065.221 km
Perigee altitude
810.265 km
Semi-major axis
7,315.88 km
Eccentricity
0.01742
Inclination
99.9411°
RAAN
284.2856°
Arg. of periapsis
98.1108°
True anomaly
262.00447°
Mean anomaly
263.9853°
Eccentric anomaly
262.99439°
Mean motion
3.46851 °/min
Orbital period
103.79 mins
BSTAR
0.0010765
Loading maneuver chart data...
Computing Atmospheric mass density...

Documentation

Showing up to 5 results
|